NOAA 16 DEB, 41071

Orbit data source: Space-Track

NOAA 16 DEB, 41071 is space debris in SSO originally from a launch on Thu, 21 Sep 2000 UTC launched from the Air Force Western Test Range (AFWTR). Debris objects in space refer to the collection of defunct objects orbiting the Earth. Examples of debris include non-operational satellites, rocket bodies, and fragments generated from explosions, collisions, or faulty payload assembly.

Loading next visibility...
Identifier
41071, 2000-055AE
Orbit
SSO
Country
Flag of USUS
Related business
Manufacturer
Unknown
Mission
Spacecraft
Bus & Motor
Unknown
Mass
Unknown
Launch date (UTC)
2000-09-21 (25 years ago)
Launch vehicle
Unknown
Launch site
Air Force Western Test Range (AFWTR)
Object type
Payload
Rocket body
Debris
Shape & HBR
Unknown
Radar Cross Section
Small (<0.1 m²)

Expand to show TLE details & history
Last TLE update: 1 day ago

TLE from 1 day ago
0 NOAA 16 DEB
1 41071U 00055AE  25241.94426436  .00004974  00000-0  20521-2 0  9991
2 41071  98.8149 342.2343 0011830 125.1803 235.0486 14.27209138504293
Epoch: 2025-08-29T22:39Z
TLE epoch observation values (Epoch: 2025-08-29T22:39:44.44Z)
Latitude
-0.00012°
Longitude
23.9135°
Altitude
808.869 km
Speed
7.446 km/s
True Right ascension
22h 48m 56s
True Declination
0° 00' 00"
Sunlit
Object was in full shadow at epoch
Visualization orbit readout
Latitude
Unknown
Longitude
Unknown
Altitude
Unknown
Speed
Unknown
Apparent Right ascension
Unknown
Apparent Declination
Unknown
Sunlit
N/A
Visualization observer readout
Local Sidereal Time
15:42:34
Azimuth
Unknown
Elevation
Unknown
Doppler factor
Unknown
Orbital elements
Apogee altitude
806.718 km
Perigee altitude
789.739 km
Semi-major axis
7,176.366 km
Eccentricity
0.00118
Inclination
98.8149°
RAAN
342.2343°
Arg. of periapsis
125.1803°
True anomaly
234.93758°
Mean anomaly
235.0486°
Eccentric anomaly
234.99308°
Mean motion
3.57015 °/min
Orbital period
100.84 mins
BSTAR
0.0020521
Loading maneuver chart data...
Computing Atmospheric mass density...
Loading historical data...
Loading historical data...
Loading historical data...
Loading historical data...
Loading historical data...
Loading historical data...
Loading historical data...

Documentation

Showing up to 5 results
|